QPF
0.00 0.00 0.00 0.00 0.00 0.00 0.00 0.00 0.00 0.01 0.03 0.05 0.05 0.09 0.16 0.25 0.23 0.18 0.14 0.11 0.07 0.05 0.05 0.05 0.05 0.05 0.04 0.03 0.03 0.04 0.06 0.06 0.05 0.04 0.04 0.06 0.08 0.10 0.11 0.14 0.13 0.13 0.14 0.13
0.01 0.01 0.01 0.00 0.00 0.00 0.00 0.00 0.01 0.01 0.05 0.13 0.15 0.10 0.15 0.17 0.13 0.10 0.07 0.04 0.03 0.02 0.02 0.02 0.03 0.04 0.03 0.03 0.04 0.06 0.06 0.07 0.06 0.06 0.07 0.08 0.08 0.09 0.10 0.13 0.12 0.11 0.11 0.13
0.01 0.01 0.01 0.01 0.01 0.01 0.00 0.01 0.01 0.02 0.05 0.17 0.22 0.17 0.18 0.13 0.13 0.10 0.06 0.03 0.03 0.02 0.02 0.02 0.03 0.03 0.03 0.04 0.06 0.07 0.07 0.07 0.07 0.09 0.12 0.11 0.09 0.10 0.10 0.09 0.10 0.09 0.08 0.09
0.01 0.01 0.01 0.02 0.02 0.02 0.01 0.01 0.02 0.01 0.03 0.08 0.12 0.16 0.22 0.15 0.14 0.08 0.06 0.03 0.03 0.02 0.02 0.03 0.02 0.03 0.05 0.09 0.09 0.07 0.08 0.08 0.10 0.12 0.12 0.11 0.09 0.08 0.07 0.08 0.08 0.08 0.09 0.08
0.01 0.02 0.02 0.03 0.03 0.05 0.04 0.04 0.05 0.05 0.05 0.06 0.06 0.12 0.18 0.12 0.07 0.06 0.04 0.03 0.03 0.02 0.03 0.03 0.03 0.03 0.04 0.09 0.13 0.11 0.08 0.07 0.10 0.11 0.10 0.10 0.10 0.09 0.09 0.09 0.08 0.07 0.10 0.13
0.01 0.04 0.05 0.05 0.05 0.09 0.08 0.08 0.09 0.09 0.08 0.06 0.06 0.09 0.12 0.10 0.06 0.04 0.04 0.04 0.03 0.03 0.03 0.02 0.02 0.03 0.03 0.05 0.07 0.10 0.10 0.07 0.07 0.08 0.08 0.08 0.08 0.09 0.10 0.10 0.08 0.07 0.09 0.11
0.02 0.03 0.04 0.10 0.11 0.13 0.14 0.11 0.12 0.15 0.15 0.09 0.09 0.10 0.11 0.13 0.09 0.07 0.06 0.06 0.05 0.05 0.04 0.03 0.02 0.02 0.03 0.03 0.03 0.04 0.06 0.06 0.06 0.06 0.07 0.07 0.07 0.09 0.09 0.10 0.11 0.10 0.10 0.09
0.03 0.05 0.06 0.07 0.08 0.14 0.19 0.21 0.22 0.23 0.23 0.14 0.11 0.13 0.17 0.14 0.13 0.10 0.09 0.08 0.07 0.07 0.07 0.05 0.04 0.03 0.03 0.02 0.03 0.05 0.05 0.06 0.04 0.04 0.04 0.04 0.06 0.07 0.08 0.09 0.10 0.10 0.11 0.09
0.06 0.06 0.09 0.10 0.09 0.18 0.28 0.40 0.37 0.27 0.26 0.18 0.12 0.12 0.15 0.16 0.14 0.10 0.08 0.08 0.07 0.05 0.06 0.07 0.04 0.03 0.03 0.04 0.05 0.06 0.06 0.07 0.06 0.06 0.06 0.07 0.07 0.06 0.06 0.06 0.07 0.08 0.09 0.09
0.08 0.09 0.12 0.12 0.09 0.14 0.23 0.29 0.25 0.24 0.21 0.15 0.11 0.10 0.14 0.15 0.12 0.08 0.06 0.05 0.05 0.05 0.05 0.04 0.04 0.04 0.04 0.05 0.06 0.07 0.06 0.06 0.06 0.06 0.05 0.06 0.05 0.05 0.04 0.04 0.05 0.05 0.06 0.06
0.11 0.11 0.15 0.18 0.12 0.12 0.16 0.18 0.12 0.13 0.12 0.08 0.07 0.08 0.07 0.08 0.07 0.05 0.05 0.05 0.05 0.05 0.04 0.04 0.04 0.05 0.06 0.06 0.06 0.06 0.05 0.05 0.05 0.03 0.03 0.02 0.02 0.03 0.03 0.02 0.02 0.03 0.03 0.03
0.18 0.15 0.13 0.15 0.12 0.11 0.15 0.13 0.10 0.10 0.08 0.05 0.04 0.06 0.06 0.07 0.07 0.07 0.07 0.07 0.06 0.06 0.05 0.04 0.04 0.05 0.06 0.06 0.06 0.06 0.05 0.04 0.03 0.03 0.01 0.01 0.01 0.01 0.01 0.01 0.01 0.01 0.02 0.01
0.22 0.17 0.15 0.12 0.12 0.15 0.20 0.15 0.12 0.11 0.09 0.06 0.04 0.07 0.12 0.11 0.09 0.07 0.06 0.05 0.05 0.08 0.07 0.05 0.05 0.05 0.04 0.04 0.05 0.04 0.03 0.03 0.03 0.03 0.01 0.01 0.00 0.00 0.01 0.01 0.02 0.01 0.01 0.01
0.22 0.20 0.17 0.13 0.10 0.09 0.10 0.10 0.09 0.09 0.08 0.07 0.05 0.05 0.09 0.10 0.07 0.07 0.07 0.05 0.04 0.05 0.06 0.06 0.07 0.05 0.04 0.03 0.04 0.03 0.02 0.03 0.04 0.04 0.03 0.02 0.01 0.00 0.01 0.01 0.01 0.02 0.02 0.02
0.22 0.19 0.14 0.09 0.07 0.06 0.06 0.05 0.05 0.06 0.07 0.06 0.05 0.05 0.09 0.06 0.04 0.05 0.05 0.05 0.05 0.05 0.06 0.06 0.06 0.05 0.04 0.03 0.02 0.02 0.02 0.02 0.02 0.03 0.04 0.03 0.03 0.02 0.02 0.03 0.03 0.03 0.03 0.03
0.23 0.15 0.10 0.06 0.06 0.05 0.03 0.03 0.05 0.06 0.06 0.06 0.05 0.04 0.04 0.05 0.04 0.04 0.03 0.04 0.04 0.05 0.05 0.04 0.03 0.02 0.02 0.02 0.02 0.03 0.03 0.04 0.03 0.03 0.03 0.04 0.04 0.04 0.03 0.03 0.03 0.03 0.03 0.03
0.21 0.14 0.11 0.09 0.06 0.05 0.03 0.02 0.04 0.05 0.05 0.05 0.06 0.06 0.05 0.05 0.04 0.03 0.02 0.02 0.02 0.03 0.03 0.03 0.02 0.01 0.01 0.00 0.00 0.01 0.03 0.05 0.06 0.05 0.04 0.03 0.03 0.02 0.02 0.01 0.01 0.01 0.01 0.01
0.15 0.11 0.09 0.11 0.07 0.04 0.03 0.03 0.03 0.04 0.05 0.06 0.06 0.05 0.05 0.06 0.05 0.04 0.03 0.02 0.01 0.01 0.01 0.01 0.01 0.01 0.00 0.00 0.00 0.00 0.00 0.00 0.01 0.01 0.01 0.01 0.01 0.02 0.01 0.01 0.01 0.01 0.01 0.00
0.10 0.06 0.05 0.05 0.05 0.04 0.03 0.04 0.04 0.04 0.04 0.04 0.05 0.06 0.06 0.06 0.05 0.04 0.04 0.04 0.04 0.02 0.01 0.01 0.01 0.01 0.00 0.00 0.00 0.00 0.00 0.00 0.00 0.00 0.00 0.00 0.00 0.00 0.00 0.00 0.00 0.00 0.00 0.00
0.06 0.04 0.04 0.05 0.04 0.04 0.03 0.04 0.04 0.04 0.03 0.03 0.04 0.05 0.06 0.06 0.04 0.04 0.04 0.03 0.02 0.02 0.01 0.01 0.01 0.01 0.00 0.00 0.00 0.00 0.00 0.00 0.00 0.00 0.00 0.00 0.00 0.00 0.00 0.00 0.00 0.00 0.00 0.00
0.05 0.05 0.05 0.05 0.05 0.04 0.04 0.04 0.03 0.04 0.03 0.03 0.04 0.04 0.04 0.04 0.03 0.03 0.02 0.02 0.01 0.01 0.01 0.01 0.01 0.01 0.00 0.00 0.00 0.00 0.00 0.00 0.00 0.00 0.00 0.00 0.00 0.00 0.00 0.00 0.00 0.00 0.00 0.00
0.05 0.05 0.04 0.03 0.04 0.04 0.04 0.03 0.03 0.04 0.03 0.02 0.03 0.04 0.04 0.02 0.01 0.01 0.01 0.01 0.01 0.01 0.01 0.01 0.00 0.00 0.00 0.00 0.00 0.00 0.00 0.00 0.00 0.00 0.00 0.00 0.00 0.00 0.00 0.00 0.00 0.00 0.00 0.00
0.04 0.04 0.04 0.03 0.03 0.04 0.05 0.04 0.04 0.03 0.02 0.02 0.03 0.04 0.05 0.04 0.02 0.01 0.01 0.01 0.01 0.01 0.01 0.01 0.01 0.00 0.00 0.00 0.00 0.00 0.00 0.00 0.00 0.00 0.00 0.00 0.00 0.00 0.00 0.00 0.00 0.00 0.00 0.00
0.04 0.04 0.05 0.05 0.05 0.05 0.07 0.07 0.05 0.03 0.02 0.03 0.04 0.04 0.05 0.06 0.05 0.02 0.01 0.01 0.01 0.01 0.01 0.01 0.00 0.00 0.00 0.00 0.00 0.00 0.00 0.00 0.00 0.00 0.00 0.00 0.00 0.00 0.00 0.00 0.00 0.00 0.00 0.00
0.04 0.04 0.04 0.05 0.05 0.06 0.07 0.07 0.04 0.03 0.03 0.03 0.03 0.03 0.03 0.04 0.03 0.01 0.01 0.00 0.00 0.00 0.00 0.01 0.01 0.00 0.00 0.00 0.00 0.00 0.00 0.00 0.00 0.00 0.00 0.00 0.00 0.00 0.00 0.00 0.00 0.00 0.00 0.00
0.05 0.05 0.05 0.04 0.04 0.04 0.05 0.04 0.04 0.05 0.04 0.03 0.03 0.02 0.01 0.01 0.00 0.00 0.00 0.00 0.00 0.00 0.00 0.00 0.00 0.00 0.00 0.00 0.00 0.00 0.00 0.00 0.00 0.00 0.00 0.00 0.00 0.00 0.00 0.00 0.00 0.00 0.00 0.00
0.05 0.05 0.04 0.04 0.04 0.03 0.02 0.02 0.02 0.03 0.03 0.03 0.02 0.02 0.01 0.00 0.00 0.00 0.00 0.00 0.00 0.00 0.00 0.00 0.00 0.00 0.00 0.00 0.00 0.00 0.00 0.00 0.00 0.00 0.00 0.00 0.00 0.00 0.00 0.00 0.00 0.00 0.00 0.00
MSLP
1007.58 1008.11 1008.57 1008.98 1009.36 1009.72 1010.06 1010.39 1010.70 1010.98 1011.24 1011.49 1011.72 1011.97 1012.23 1012.53 1012.85 1013.21 1013.57 1013.94 1014.27 1014.56 1014.79 1014.94 1015.03 1015.06 1015.02 1014.94 1014.81 1014.66 1014.49 1014.29 1014.08 1013.87 1013.65 1013.45 1013.25 1013.07 1012.92 1012.80 1012.70 1012.63 1012.58 1012.55
1007.35 1007.80 1008.12 1008.32 1008.46 1008.57 1008.71 1008.89 1009.15 1009.48 1009.89 1010.37 1010.90 1011.47 1012.04 1012.61 1013.15 1013.65 1014.10 1014.48 1014.78 1015.02 1015.20 1015.32 1015.39 1015.41 1015.41 1015.36 1015.30 1015.20 1015.09 1014.95 1014.81 1014.66 1014.50 1014.36 1014.22 1014.10 1014.00 1013.91 1013.82 1013.74 1013.66 1013.58
1007.26 1007.61 1007.77 1007.78 1007.70 1007.61 1007.57 1007.63 1007.85 1008.23 1008.76 1009.44 1010.22 1011.06 1011.90 1012.70 1013.43 1014.06 1014.58 1014.98 1015.27 1015.48 1015.63 1015.72 1015.78 1015.81 1015.83 1015.82 1015.79 1015.75 1015.68 1015.59 1015.50 1015.40 1015.30 1015.21 1015.15 1015.09 1015.05 1015.00 1014.95 1014.89 1014.81 1014.71
1007.31 1007.54 1007.55 1007.40 1007.15 1006.89 1006.71 1006.69 1006.87 1007.28 1007.91 1008.73 1009.70 1010.74 1011.78 1012.76 1013.63 1014.37 1014.95 1015.38 1015.69 1015.90 1016.04 1016.13 1016.20 1016.25 1016.29 1016.32 1016.33 1016.31 1016.27 1016.22 1016.15 1016.09 1016.04 1016.00 1016.00 1016.01 1016.03 1016.05 1016.05 1016.03 1015.97 1015.88
1007.47 1007.57 1007.46 1007.17 1006.80 1006.43 1006.16 1006.08 1006.24 1006.66 1007.35 1008.26 1009.34 1010.50 1011.66 1012.76 1013.73 1014.55 1015.19 1015.68 1016.02 1016.26 1016.42 1016.55 1016.65 1016.73 1016.81 1016.87 1016.90 1016.91 1016.89 1016.86 1016.81 1016.77 1016.76 1016.77 1016.81 1016.88 1016.96 1017.04 1017.10 1017.13 1017.10 1017.04
1007.66 1007.65 1007.44 1007.07 1006.63 1006.21 1005.90 1005.80 1005.94 1006.37 1007.08 1008.03 1009.15 1010.36 1011.58 1012.73 1013.76 1014.63 1015.33 1015.87 1016.26 1016.55 1016.78 1016.95 1017.11 1017.25 1017.37 1017.47 1017.54 1017.57 1017.57 1017.55 1017.53 1017.51 1017.52 1017.56 1017.64 1017.76 1017.89 1018.02 1018.13 1018.19 1018.20 1018.16
1007.82 1007.72 1007.46 1007.06 1006.62 1006.20 1005.91 1005.81 1005.97 1006.41 1007.11 1008.05 1009.16 1010.37 1011.59 1012.74 1013.79 1014.68 1015.42 1016.00 1016.45 1016.81 1017.10 1017.35 1017.58 1017.78 1017.96 1018.11 1018.22 1018.29 1018.32 1018.33 1018.33 1018.33 1018.37 1018.44 1018.55 1018.70 1018.86 1019.02 1019.15 1019.23 1019.26 1019.23
1007.90 1007.75 1007.48 1007.11 1006.72 1006.37 1006.14 1006.10 1006.30 1006.74 1007.44 1008.34 1009.41 1010.56 1011.73 1012.85 1013.87 1014.76 1015.51 1016.13 1016.64 1017.06 1017.42 1017.75 1018.04 1018.32 1018.56 1018.77 1018.93 1019.05 1019.13 1019.17 1019.21 1019.25 1019.32 1019.42 1019.55 1019.71 1019.88 1020.05 1020.18 1020.26 1020.28 1020.24
1007.90 1007.74 1007.50 1007.21 1006.92 1006.69 1006.57 1006.62 1006.87 1007.34 1008.03 1008.89 1009.89 1010.97 1012.06 1013.10 1014.07 1014.93 1015.67 1016.31 1016.84 1017.31 1017.73 1018.12 1018.48 1018.82 1019.12 1019.39 1019.61 1019.79 1019.93 1020.04 1020.13 1020.22 1020.33 1020.46 1020.61 1020.78 1020.94 1021.09 1021.19 1021.25 1021.24 1021.18
1007.85 1007.71 1007.55 1007.37 1007.22 1007.14 1007.15 1007.31 1007.64 1008.14 1008.82 1009.64 1010.57 1011.56 1012.55 1013.51 1014.41 1015.21 1015.93 1016.55 1017.10 1017.59 1018.04 1018.46 1018.86 1019.24 1019.60 1019.93 1020.21 1020.46 1020.67 1020.85 1021.01 1021.17 1021.32 1021.49 1021.66 1021.82 1021.97 1022.09 1022.16 1022.17 1022.13 1022.03
1007.79 1007.71 1007.65 1007.61 1007.61 1007.68 1007.84 1008.11 1008.52 1009.06 1009.73 1010.51 1011.37 1012.27 1013.17 1014.04 1014.85 1015.60 1016.26 1016.85 1017.39 1017.87 1018.32 1018.75 1019.17 1019.57 1019.96 1020.33 1020.67 1020.98 1021.26 1021.52 1021.76 1021.99 1022.20 1022.41 1022.60 1022.76 1022.89 1022.98 1023.01 1022.99 1022.91 1022.78
1007.79 1007.79 1007.83 1007.92 1008.06 1008.28 1008.57 1008.95 1009.42 1009.99 1010.66 1011.40 1012.19 1013.00 1013.82 1014.61 1015.35 1016.03 1016.64 1017.19 1017.69 1018.15 1018.58 1018.99 1019.40 1019.79 1020.19 1020.57 1020.95 1021.31 1021.66 1021.99 1022.31 1022.60 1022.88 1023.12 1023.34 1023.51 1023.64 1023.71 1023.72 1023.67 1023.57 1023.44
1007.86 1007.94 1008.09 1008.30 1008.56 1008.89 1009.28 1009.74 1010.26 1010.85 1011.49 1012.19 1012.93 1013.68 1014.42 1015.14 1015.82 1016.45 1017.02 1017.53 1018.00 1018.42 1018.81 1019.19 1019.56 1019.93 1020.31 1020.69 1021.08 1021.48 1021.87 1022.25 1022.63 1022.99 1023.31 1023.61 1023.85 1024.05 1024.18 1024.25 1024.26 1024.21 1024.13 1024.02
1008.00 1008.17 1008.41 1008.72 1009.08 1009.49 1009.94 1010.44 1010.98 1011.56 1012.18 1012.84 1013.53 1014.22 1014.92 1015.59 1016.23 1016.83 1017.37 1017.86 1018.29 1018.68 1019.04 1019.37 1019.70 1020.03 1020.37 1020.73 1021.11 1021.51 1021.93 1022.35 1022.77 1023.17 1023.54 1023.87 1024.15 1024.37 1024.53 1024.62 1024.66 1024.64 1024.60 1024.54
1008.19 1008.44 1008.76 1009.15 1009.57 1010.03 1010.52 1011.03 1011.57 1012.12 1012.71 1013.33 1013.97 1014.63 1015.29 1015.94 1016.57 1017.16 1017.69 1018.17 1018.60 1018.97 1019.29 1019.59 1019.87 1020.15 1020.45 1020.77 1021.12 1021.51 1021.92 1022.35 1022.79 1023.22 1023.63 1023.99 1024.31 1024.56 1024.75 1024.89 1024.97 1025.01 1025.03 1025.04
1008.37 1008.71 1009.11 1009.56 1010.04 1010.53 1011.03 1011.53 1012.04 1012.57 1013.12 1013.70 1014.30 1014.93 1015.58 1016.23 1016.86 1017.46 1018.01 1018.50 1018.93 1019.30 1019.61 1019.87 1020.12 1020.36 1020.61 1020.88 1021.20 1021.55 1021.95 1022.37 1022.81 1023.25 1023.68 1024.07 1024.41 1024.70 1024.94 1025.12 1025.26 1025.37 1025.46 1025.55
1008.53 1008.96 1009.44 1009.95 1010.48 1010.99 1011.50 1011.99 1012.48 1012.97 1013.49 1014.03 1014.61 1015.22 1015.86 1016.52 1017.17 1017.79 1018.37 1018.88 1019.33 1019.70 1020.00 1020.26 1020.47 1020.67 1020.88 1021.12 1021.39 1021.71 1022.08 1022.48 1022.91 1023.35 1023.78 1024.19 1024.56 1024.88 1025.16 1025.39 1025.59 1025.77 1025.93 1026.09
1008.65 1009.18 1009.75 1010.34 1010.91 1011.46 1011.98 1012.47 1012.94 1013.41 1013.90 1014.42 1014.98 1015.58 1016.22 1016.88 1017.55 1018.19 1018.79 1019.33 1019.79 1020.18 1020.49 1020.73 1020.93 1021.11 1021.28 1021.48 1021.72 1022.01 1022.34 1022.73 1023.14 1023.57 1024.00 1024.42 1024.81 1025.16 1025.47 1025.74 1025.99 1026.21 1026.43 1026.64
1008.76 1009.41 1010.08 1010.75 1011.38 1011.98 1012.52 1013.02 1013.50 1013.96 1014.43 1014.94 1015.48 1016.07 1016.71 1017.37 1018.04 1018.69 1019.30 1019.85 1020.32 1020.71 1021.02 1021.26 1021.45 1021.61 1021.77 1021.95 1022.16 1022.43 1022.74 1023.10 1023.50 1023.92 1024.35 1024.77 1025.17 1025.54 1025.87 1026.17 1026.44 1026.69 1026.93 1027.17
1008.94 1009.69 1010.46 1011.21 1011.92 1012.57 1013.15 1013.68 1014.17 1014.64 1015.11 1015.60 1016.14 1016.72 1017.33 1017.98 1018.63 1019.27 1019.87 1020.41 1020.87 1021.26 1021.56 1021.79 1021.97 1022.12 1022.27 1022.44 1022.65 1022.90 1023.20 1023.56 1023.95 1024.37 1024.80 1025.22 1025.62 1025.99 1026.33 1026.64 1026.91 1027.17 1027.40 1027.63
1009.24 1010.09 1010.95 1011.77 1012.55 1013.25 1013.87 1014.43 1014.94 1015.42 1015.90 1016.39 1016.91 1017.47 1018.06 1018.67 1019.29 1019.89 1020.45 1020.96 1021.39 1021.75 1022.03 1022.25 1022.42 1022.57 1022.72 1022.89 1023.10 1023.36 1023.67 1024.02 1024.41 1024.83 1025.26 1025.68 1026.08 1026.44 1026.78 1027.07 1027.34 1027.57 1027.78 1027.98
1009.73 1010.65 1011.56 1012.44 1013.26 1013.99 1014.65 1015.23 1015.76 1016.25 1016.73 1017.22 1017.72 1018.25 1018.80 1019.37 1019.93 1020.48 1020.99 1021.44 1021.83 1022.15 1022.40 1022.60 1022.77 1022.92 1023.08 1023.26 1023.48 1023.75 1024.07 1024.43 1024.83 1025.25 1025.68 1026.09 1026.48 1026.83 1027.15 1027.42 1027.66 1027.86 1028.03 1028.18
1010.45 1011.39 1012.32 1013.21 1014.03 1014.77 1015.43 1016.02 1016.55 1017.05 1017.52 1017.99 1018.48 1018.97 1019.48 1020.00 1020.50 1020.99 1021.43 1021.83 1022.16 1022.43 1022.66 1022.84 1023.00 1023.15 1023.32 1023.52 1023.76 1024.05 1024.38 1024.76 1025.17 1025.59 1026.01 1026.41 1026.78 1027.11 1027.40 1027.64 1027.85 1028.01 1028.14 1028.24
1011.38 1012.30 1013.19 1014.04 1014.82 1015.53 1016.17 1016.74 1017.25 1017.74 1018.20 1018.65 1019.11 1019.58 1020.05 1020.51 1020.96 1021.38 1021.77 1022.10 1022.39 1022.62 1022.82 1022.99 1023.14 1023.30 1023.49 1023.70 1023.96 1024.27 1024.62 1025.01 1025.41 1025.83 1026.23 1026.61 1026.96 1027.26 1027.52 1027.73 1027.89 1028.02 1028.11 1028.16
1012.48 1013.32 1014.13 1014.90 1015.60 1016.24 1016.82 1017.34 1017.82 1018.28 1018.72 1019.15 1019.59 1020.03 1020.46 1020.89 1021.29 1021.67 1022.00 1022.30 1022.54 1022.75 1022.93 1023.10 1023.26 1023.43 1023.63 1023.86 1024.14 1024.46 1024.82 1025.20 1025.60 1025.99 1026.37 1026.72 1027.04 1027.30 1027.52 1027.69 1027.82 1027.91 1027.97 1027.99
1013.64 1014.38 1015.07 1015.72 1016.32 1016.86 1017.35 1017.81 1018.25 1018.67 1019.08 1019.50 1019.92 1020.34 1020.75 1021.15 1021.53 1021.87 1022.18 1022.45 1022.68 1022.88 1023.06 1023.22 1023.40 1023.58 1023.80 1024.05 1024.34 1024.66 1025.01 1025.38 1025.76 1026.12 1026.46 1026.77 1027.03 1027.25 1027.43 1027.56 1027.66 1027.72 1027.75 1027.76
1014.75 1015.37 1015.94 1016.46 1016.93 1017.37 1017.78 1018.17 1018.55 1018.94 1019.33 1019.73 1020.14 1020.55 1020.95 1021.34 1021.71 1022.05 1022.35 1022.61 1022.84 1023.04 1023.23 1023.41 1023.60 1023.80 1024.03 1024.29 1024.58 1024.90 1025.23 1025.57 1025.91 1026.23 1026.52 1026.77 1026.98 1027.15 1027.28 1027.37 1027.44 1027.47 1027.49 1027.49
Thickness
5737 5751 5756 5756 5759 5760 5749 5741 5734 5742 5748 5760 5768 5773 5776 5777 5777 5775 5774 5773 5772 5772 5772 5773 5771 5770 5769 5768 5767 5765 5762 5759 5756 5754 5752 5750 5747 5746 5744 5742 5740 5738 5735 5733
5733 5749 5753 5752 5757 5760 5758 5754 5751 5751 5752 5770 5774 5775 5773 5773 5773 5770 5771 5771 5770 5769 5768 5767 5767 5766 5764 5763 5762 5760 5757 5754 5752 5750 5748 5746 5743 5741 5739 5737 5734 5732 5730 5728
5711 5735 5740 5730 5745 5752 5754 5757 5755 5746 5755 5766 5766 5769 5770 5771 5770 5768 5767 5768 5767 5765 5764 5763 5762 5762 5759 5758 5757 5754 5751 5749 5747 5745 5743 5741 5739 5736 5733 5730 5728 5725 5724 5722
5703 5716 5704 5726 5753 5758 5754 5754 5760 5762 5765 5767 5767 5767 5767 5769 5767 5764 5763 5762 5761 5760 5759 5759 5758 5757 5755 5753 5750 5747 5744 5743 5741 5739 5737 5735 5733 5730 5727 5725 5722 5719 5717 5715
5690 5694 5707 5728 5744 5747 5743 5737 5753 5757 5760 5760 5761 5758 5754 5759 5763 5761 5759 5758 5757 5756 5755 5754 5752 5750 5748 5744 5742 5740 5737 5736 5734 5733 5731 5728 5726 5723 5722 5719 5716 5713 5710 5708
5688 5690 5691 5714 5741 5754 5747 5724 5746 5753 5752 5752 5754 5740 5740 5751 5754 5752 5752 5751 5750 5749 5748 5746 5744 5743 5740 5736 5734 5732 5730 5729 5728 5727 5724 5722 5719 5717 5715 5713 5709 5706 5702 5700
5684 5684 5694 5721 5739 5746 5718 5720 5740 5746 5748 5748 5745 5744 5745 5747 5746 5745 5743 5743 5743 5741 5738 5736 5736 5735 5731 5728 5726 5725 5724 5723 5720 5719 5717 5714 5712 5710 5707 5704 5701 5697 5693 5690
5677 5676 5687 5720 5727 5722 5723 5735 5739 5740 5742 5741 5739 5740 5740 5739 5737 5736 5734 5734 5734 5732 5728 5727 5728 5727 5723 5720 5719 5719 5717 5714 5711 5710 5708 5706 5703 5700 5697 5695 5691 5687 5684 5681
5681 5684 5702 5715 5719 5726 5732 5731 5732 5732 5734 5734 5731 5731 5732 5729 5727 5726 5726 5725 5724 5722 5719 5717 5717 5718 5715 5713 5712 5711 5708 5704 5702 5700 5698 5696 5693 5690 5688 5686 5683 5678 5675 5671
5679 5687 5700 5709 5715 5721 5726 5725 5727 5728 5728 5727 5724 5723 5722 5721 5718 5717 5716 5715 5714 5712 5710 5708 5708 5708 5707 5706 5704 5702 5698 5694 5692 5689 5686 5684 5682 5680 5678 5675 5673 5669 5665 5661
5674 5684 5694 5701 5708 5713 5717 5719 5719 5720 5721 5721 5719 5715 5714 5712 5709 5708 5707 5706 5705 5703 5702 5701 5700 5699 5698 5697 5696 5693 5689 5685 5682 5678 5675 5672 5668 5665 5664 5662 5662 5661 5656 5653
5668 5680 5683 5690 5701 5708 5709 5710 5710 5710 5709 5710 5711 5707 5705 5702 5700 5699 5697 5696 5694 5693 5693 5692 5691 5689 5689 5688 5687 5684 5680 5676 5672 5669 5665 5662 5659 5654 5651 5650 5649 5648 5646 5644
5675 5682 5685 5690 5695 5701 5701 5702 5703 5703 5702 5701 5700 5699 5697 5694 5691 5690 5688 5686 5685 5684 5683 5682 5681 5681 5680 5680 5678 5676 5672 5668 5664 5660 5657 5654 5651 5648 5642 5638 5637 5635 5634 5633
5674 5678 5677 5681 5683 5689 5692 5694 5695 5694 5693 5693 5690 5688 5686 5684 5682 5680 5678 5677 5676 5675 5674 5673 5672 5671 5671 5671 5669 5666 5663 5660 5656 5652 5648 5645 5641 5638 5635 5632 5628 5622 5621 5620
5666 5671 5673 5675 5676 5679 5682 5685 5684 5682 5682 5680 5679 5677 5676 5674 5671 5669 5669 5669 5668 5666 5664 5664 5663 5661 5662 5662 5660 5657 5654 5651 5648 5644 5640 5636 5632 5628 5625 5622 5618 5613 5611 5609
5658 5663 5666 5666 5666 5668 5673 5675 5674 5672 5671 5670 5668 5667 5666 5664 5662 5661 5660 5661 5659 5656 5655 5654 5653 5653 5654 5653 5652 5649 5646 5644 5640 5636 5631 5627 5623 5619 5614 5611 5607 5604 5601 5598
5649 5651 5655 5656 5658 5660 5663 5666 5665 5664 5663 5661 5659 5658 5656 5655 5653 5652 5650 5650 5649 5647 5646 5646 5645 5646 5646 5645 5643 5640 5637 5634 5631 5626 5622 5617 5614 5610 5605 5601 5597 5593 5590 5588
5649 5650 5653 5654 5654 5653 5654 5656 5656 5656 5654 5653 5652 5650 5648 5646 5644 5642 5641 5640 5639 5638 5637 5637 5638 5639 5637 5636 5634 5631 5627 5623 5620 5617 5612 5608 5604 5600 5596 5592 5588 5584 5580 5577
5642 5644 5647 5648 5647 5646 5645 5646 5646 5646 5646 5645 5643 5640 5638 5637 5635 5634 5633 5631 5630 5628 5627 5629 5630 5629 5628 5627 5625 5621 5618 5615 5611 5607 5603 5599 5595 5591 5587 5583 5578 5574 5570 5566
5634 5636 5638 5638 5639 5639 5638 5637 5637 5636 5635 5635 5633 5631 5629 5628 5627 5625 5623 5621 5619 5619 5620 5621 5621 5619 5618 5618 5616 5612 5609 5606 5602 5598 5594 5590 5586 5581 5577 5573 5569 5564 5560 5555
5627 5629 5630 5630 5630 5630 5630 5630 5629 5627 5626 5626 5625 5623 5621 5619 5618 5616 5614 5611 5609 5611 5612 5612 5611 5610 5609 5608 5606 5602 5599 5596 5592 5588 5585 5580 5576 5572 5567 5563 5559 5554 5549 5545
5620 5620 5621 5621 5621 5620 5621 5621 5620 5619 5618 5617 5616 5614 5612 5609 5607 5606 5604 5603 5602 5603 5603 5602 5602 5601 5600 5598 5596 5593 5590 5587 5583 5579 5575 5571 5567 5562 5557 5553 5548 5544 5539 5535
5612 5612 5613 5613 5613 5613 5612 5612 5612 5611 5610 5609 5608 5606 5604 5602 5601 5599 5595 5594 5596 5596 5595 5593 5593 5592 5591 5589 5586 5584 5581 5577 5573 5569 5566 5562 5558 5553 5548 5544 5539 5535 5529 5524
5604 5604 5605 5605 5606 5605 5603 5602 5603 5603 5602 5601 5600 5599 5598 5595 5592 5591 5590 5589 5588 5588 5585 5584 5584 5583 5582 5579 5577 5574 5571 5568 5564 5560 5556 5553 5549 5544 5540 5535 5530 5525 5520 5515
5597 5598 5598 5598 5597 5596 5596 5596 5595 5594 5594 5592 5591 5591 5590 5589 5587 5584 5583 5581 5580 5579 5577 5576 5576 5575 5573 5570 5568 5565 5562 5559 5555 5552 5547 5543 5539 5534 5530 5526 5521 5516 5511 5507
5591 5591 5592 5592 5592 5592 5591 5591 5589 5587 5586 5584 5583 5582 5581 5580 5579 5578 5576 5574 5573 5572 5570 5569 5567 5566 5564 5561 5558 5556 5553 5549 5546 5542 5538 5534 5530 5526 5521 5517 5513 5508 5503 5499
5584 5585 5586 5585 5585 5586 5586 5585 5583 5581 5580 5579 5576 5575 5575 5574 5572 5571 5569 5567 5565 5564 5562 5561 5559 5557 5555 5552 5549 5547 5544 5540 5537 5533 5530 5526 5522 5517 5513 5509 5504 5500 5496 5491